Regional Weather Roundup
Issued by NWS Charleston, SC

Current Version | Previous Version | Graphics & Text | Print | Product List | Glossary On
Versions: 1 2 3 4 5 6 7 8 9 10 11 12 13 14 15 16 17 18 19 20 21 22 23 24 25 26 27 28 29 30 31 32 33 34 35 36 37 38 39 40 41 42 43 44 45 46 47 48 49 50
093
ASUS42 KCHS 191527
RWRCHS

Regional Weather Roundup
National Weather Service Charleston SC
1000 AM EST FRI JAN 19 2018

NOTE: "fair" indicates few or no clouds below 12,000 feet with no
significant weather and/or obstructions to visibility.

Not all stations are quality controlled. Use data with caution,
especially dewpoint observations.

SCZ027-030-031-034>040-042>050-191600-
...Southeast South Carolina...

CITY           SKY/WX    TMP DP  RH WIND       PRES   REMARKS
N Charleston   FAIR      44  17  33 SW9       30.32R
Waterfront Prk NOT AVBL
Mount Pleasant FAIR      46  21  36 SW7       30.32S
Johns Island   FAIR      48  19  32 SW8       30.33S
Pinopolis        N/A     36  25  64 SW5       30.23R WCI  32
Moncks Corner  FAIR      45  14  29 SW8       30.31R
Summerville    FAIR      43  19  39 SW3       30.33R
Beaufort MCAS  FAIR      46  19  34 SW9       30.34R
Beaufort Arpt  FAIR      45  23  42 SW5       30.33S
Hilton Head Is SUNNY     43  14  31 SW9       30.36R
Walterboro     FAIR      43  18  36 W7        30.34R
Allendale      FAIR      41  16  36 VRB5      30.32R

...Southern Midlands and Pee Dee...

CITY           SKY/WX    TMP DP  RH WIND       PRES   REMARKS
Georgetown     FAIR      45  18  33 SW7       30.31S
Kingstree      FAIR      39  19  45 SW5       30.30S WCI  36
Orangeburg     FAIR      39  19  44 SW7       30.29R WCI  34
Barnwell         N/A     43  18  36 VRB6      30.31R
Aiken          FAIR      37  18  44 W7        30.31R WCI  32
Manning        FAIR      39  19  45 MISG      30.30S
Columbia       FAIR      39  22  50 VRB3      30.28S
Sumter         FAIR      38  17  43 W3        30.26R
Florence       FAIR      38  20  48 W5        30.29R WCI  34
Myrtle Beach   FAIR      45  18  34 W8        30.30R
N Myrtle Beach FAIR      45  19  35 SW8       30.28S

$$

GAZ063-065-086>088-099>101-113>116-118-119-134>141-150-191600-
...Southeast Georgia...

CITY           SKY/WX    TMP DP  RH WIND       PRES   REMARKS
Savannah Arpt  FAIR      42  17  36 W7        30.35S
Hunter AAF     FAIR      43  17  35 W6        30.32S
Fort Stewart   FAIR      42  18  37 SW6       30.33R
Statesboro     FAIR      45   9  23 NW7       30.33S
Sylvania       FAIR      44  18  34 NW8       30.33S
Claxton        FAIR      45  20  37 W8        30.35R

...CSRA, Central and far Southeast Georgia...

CITY           SKY/WX    TMP DP  RH WIND       PRES   REMARKS
Thomson        FAIR      41  10  27 N8        30.35R
Augusta-Bush   FAIR      39  18  42 W7        30.31R WCI  34
Augusta-Daniel FAIR      41  12  30 VRB3      30.30R
Swainsboro     FAIR      41  19  42 NW6       30.34S
Vidalia        FAIR      45  21  39 W6        30.35R
Eastman        FAIR      43  -2  15 NW7       30.39R
Hazlehurst     FAIR      43   6  21 CALM      30.36R
Alma           FAIR      41  21  44 W5        30.37R
Waycross       FAIR      44  16  33 W5        30.38R
Jesup          FAIR      45  16  31 CALM      30.37R
Baxley         FAIR      41  18  38 W7        30.37R
Brunswick      FAIR      45  19  36 SW3       30.39R
Saint Simons   FAIR      43  24  47 W3        30.38R

$$

SCZ027-028-034-036>038-045-046-048>050-GAZ119-141-191600-
...Lake and Supplemental Coastal Observations...

STATION/POSITION TIME  TEMP    WIND        PRES    WAVE   SWELL
                       AIR SEA DIR/SP/G            HT/PER HT/PER/DIR
                 (UTC) (F)     (DEG/KT/KT) (MB)    (FT/S) (FT/S/D)
Winyah Bay       1445   44     260/  8     1026.0S
Lake Murray      1520   38     240/  3/  4 1024.4
ACE Basin NERRS  1445   42     230/  3     1027.0R
Fort Pulaski     1500   42 44  250/  5/  7 1028.0
Sapelo Island    1500   42     290/  4     1028.0

$$

ANZ835-935-AMZ111-154-330-350-352-354-370-450-454-472-191600-
...C-MAN and Buoy Observations...

STATION/POSITION TIME  TEMP    WIND        PRES    WAVE   SWELL
                       AIR SEA DIR/SP/G            HT/PER HT/PER/DIR
                 (UTC) (F)     (DEG/KT/KT) (MB)    (FT/S) (FT/S/D)
Buoy 41004       1510   53 70  240/ 14/ 17 1026.6
Buoy 41008       1450   44 51  270/ 10/ 12 1028.1R   2/11   2/ 60/11
Folly Beach CMAN 1500   45     220/ 12/ 13 1027.3R
Capers Nearshore 1508   42 48  250/ 14/ 19 1026.3R
Fripp Nearshore  1508   41 45  260/ 12/ 16 1027.4R


STATION/POSITION TIME  TEMP    WIND        PRES    WAVE   SWELL
                       AIR SEA DIR/SP/G            HT/PER HT/PER/DIR
                 (UTC) (F)     (DEG/KT/KT) (MB)    (FT/S) (FT/S/D)
5E St. Marys GA  1500      49                N/A     2/12   2/ 80/12
Frying Pan Buoy  1510   51 64  260/ 12/ 16 1025.7
Buoy 41025       1510   47     290/ 12/ 16 1024.8
Cape Lookout NC  1500          280/ 13/ 14 1025.2R
Buoy 41002       1450   59 70  310/  8/ 12 1025.6R   9/11   8/ 30/11
Buoy 41010       NOT AVBL
St Augustine FL  1500   46 48  360/  5/  5 1028.9R


$$




USA.gov is the U.S. government's official web portal to all federal, state and local government web resources and services.